User: anonymous   Login
Location: Langangen
(59.1000°N, 9.8000°E)
Time: 21:21:39
(UTC+02:00)
Language:

Iridium 60 - Orbit

View from above orbital plane
View from above orbital plane
View from above satellite
View from above satellite

Ground track
Ground track

The orbit data is extracted from the following two-line orbital elements,

1 25276U 98019E   18171.49039251  .00000085  00000-0  23201-4 0  9995
2 25276  86.3957 133.0656 0002200  86.2593 273.8855 14.34215487 58856
Epoch (UTC): 20 June 2018 11:46:09
Eccentricity: 0.0002200
inclination: 86.3957°
perigee height: 776 km
apogee height: 779 km
right ascension of ascending node: 133.0656°
argument of perigee: 86.2593°
revolutions per day: 14.34215487
mean anomaly at epoch: 273.8855°
orbit number at epoch: 5885

The dashed part of the orbit path shows where the satellite is in the earth's shadow,  

DLR